Location: Eindhoven
(51.4416°N, 5.4697°E)
Time: 03:27:14
(UTC+01:00)

Vanguard 3 - All Passes

Search period start: 22 November 2019 00:00
Search period end: 02 December 2019 00:00
Orbit: 507 x 3263 km, 33.4° (Epoch: 21 November)

Date Brightness Start Highest point End Pass type
(mag) Time Alt. Az. Time Alt. Az. Time Alt. Az.
22 Nov - 11:55:04 10° S 12:07:58 24° SE 12:21:31 10° E daylight
22 Nov - 14:04:27 10° SW 14:21:19 39° SSE 14:36:54 10° ESE daylight
22 Nov - 16:17:57 10° WSW 16:35:25 41° S 16:49:10 10° SE daylight
22 Nov - 18:34:17 10° W 18:48:11 28° SSW 18:58:33 10° SSE visible
23 Nov - 10:44:24 10° SSE 10:53:14 16° SE 11:02:46 10° ESE daylight
23 Nov - 12:50:17 10° SSW 13:05:34 34° SSE 13:21:16 10° E daylight
23 Nov - 15:02:02 10° WSW 15:19:36 42° S 15:34:58 10° ESE daylight
23 Nov - 17:16:55 10° WSW 17:33:22 36° SSW 17:45:59 10° SE visible
23 Nov - 19:35:21 10° W 19:45:00 18° SW 19:52:46 10° S visible
24 Nov - 11:37:21 10° SSW 11:50:16 26° SE 12:04:33 10° E daylight
24 Nov - 13:46:59 10° SW 14:03:38 40° SSE 14:20:00 10° ESE daylight
24 Nov - 16:00:23 10° WSW 16:17:52 41° S 16:32:27 10° SE daylight
24 Nov - 18:16:40 10° W 18:30:46 27° SW 18:41:45 10° SSE visible
25 Nov - 10:26:16 10° SSE 10:35:34 18° SE 10:46:05 10° E daylight
25 Nov - 12:32:54 10° SSW 12:47:53 35° SSE 13:04:11 10° E daylight
25 Nov - 14:44:37 10° WSW 15:01:58 43° S 15:18:05 10° ESE daylight
25 Nov - 16:59:21 10° W 17:15:49 35° SSW 17:29:11 10° SE visible
25 Nov - 19:18:04 10° WSW 19:27:35 17° SW 19:35:31 10° SSW visible
26 Nov - 11:19:56 10° SSW 11:32:36 28° SE 11:47:22 10° E daylight
26 Nov - 13:29:43 10° SW 13:45:58 41° S 14:02:56 10° ESE daylight
26 Nov - 15:42:57 10° WSW 16:00:16 41° SSW 16:15:34 10° SE daylight
26 Nov - 17:59:10 10° W 18:13:15 26° SW 18:24:45 10° SSE visible
27 Nov - 10:08:35 10° S 10:17:59 19° SE 10:29:04 10° E daylight
27 Nov - 12:15:44 10° SW 12:30:13 37° SSE 12:46:56 10° ESE daylight
27 Nov - 14:27:23 10° WSW 14:44:18 43° S 15:01:02 10° ESE daylight
27 Nov - 16:41:56 10° W 16:58:13 34° SSW 17:12:10 10° SSE visible
27 Nov - 19:01:02 10° WSW 19:10:04 16° SW 19:17:56 10° SSW visible
28 Nov - 11:02:46 10° SSW 11:14:59 29° SSE 11:30:01 10° E daylight
28 Nov - 13:12:39 10° SW 13:28:18 42° S 13:45:41 10° ESE daylight
28 Nov - 15:25:42 10° WSW 15:42:36 40° SSW 15:58:29 10° SE daylight
28 Nov - 17:41:51 10° W 17:55:38 25° SW 18:07:29 10° S visible
29 Nov - 09:51:15 10° S 10:00:28 20° SE 10:11:49 10° E daylight
29 Nov - 11:58:46 10° SW 12:12:36 37° SSE 12:29:31 10° ESE daylight
29 Nov - 14:10:20 10° WSW 14:26:38 43° S 14:43:49 10° ESE daylight
29 Nov - 16:24:41 10° W 16:40:33 33° SSW 16:54:59 10° SSE daylight
29 Nov - 18:44:19 10° WSW 18:52:29 14° SW 18:59:52 10° SSW visible
30 Nov - 08:43:52 10° SE 08:46:38 11° SE 08:49:37 10° ESE daylight
30 Nov - 10:45:51 10° SSW 10:57:28 30° SSE 11:12:30 10° E daylight
30 Nov - 12:55:45 10° SW 13:10:41 42° S 13:28:17 10° ESE daylight
30 Nov - 15:08:36 10° WSW 15:24:55 39° SSW 15:41:12 10° SE daylight
30 Nov - 17:24:45 10° W 17:37:59 23° SW 17:49:57 10° S visible
01 Dec - 09:34:11 10° S 09:43:02 21° SE 09:54:22 10° E daylight
01 Dec - 11:41:59 10° SW 11:55:04 38° SSE 12:11:57 10° ESE daylight
01 Dec - 13:53:26 10° WSW 14:08:59 42° S 14:26:24 10° SE daylight
01 Dec - 16:07:35 10° W 16:22:52 31° SSW 16:37:31 10° SSE daylight
01 Dec - 18:28:11 10° WSW 18:34:50 13° SW 18:41:08 10° SSW visible
